Home > Time Zones > World Clock > Weather > Iran > Ahvaz > Past weeks

Flag for Iran Weather past 2 weeks in Ahvaz, Iran

Now
79 °F

Clear.


Feels Like: 78 °F
Forecast: 76 / 100 °F
Wind: 5 mph from North

Location: Ahwaz

Current Time: Apr 28, 2015 at 2:17:06 AM

Latest Report: Apr 28, 2015 at 1:30 AM


Visibility: 4 mi

Pressure: 29.83 "Hg

Humidity: 28%

Dew point: 43 °F

Location of AhvazLocation

Historic Weather in Ahvaz — Graph

°F

Ahvaz temperature yesterday

Maximum temperature yesterday: 93 °F (at 4:30 PM)
Minimum temperature yesterday: 70 °F (at 4:30 AM)
Average temperature yesterday: 83 °F

Past Weeks' High & Low Weather Summary

 TemperatureHumidityPressure
High100 °F (Apr 23, 2:00 PM)78% (Apr 17, 2:30 AM)30.09 "Hg (Apr 17, 2:30 AM)
Low59 °F (Apr 14, 5:30 AM)9% (Apr 26, 2:00 PM)29.68 "Hg (Apr 22, 5:00 PM)
Average80 °F31%29.91 "Hg
* Reported Apr 13 1:00 AM — Apr 28 1:00 AM, Ahvaz, Weather by CustomWeather, © 2015

Note: Actual official high and low records may vary slightly from our data, if they occured in-between our weather recording intervals... More about our weather records

Advertising

Ahvaz weather history for previous 24 hours

 ConditionsComfort  
Time TempWeatherWind HumidityBarometerVisibility
1:00 AM
Tue, Apr 28
79 °FClear.No wind28%29.83 "Hg4 mi
12:30 AM81 °FClear.5 mph26%29.83 "Hg4 mi
12:00 AM81 °FClear.5 mph24%29.86 "Hg4 mi
11:30 PM
Mon, Apr 27
81 °FClear.5 mph24%29.86 "Hg4 mi
11:00 PM82 °FPartly cloudy.No wind25%29.86 "Hg4 mi
10:30 PM84 °FPartly cloudy.No wind23%29.86 "Hg4 mi
9:55 PM86 °FPartly cloudy.5 mph20%29.86 "Hg4 mi
9:30 PM86 °FPartly cloudy.7 mph19%29.86 "Hg4 mi
8:55 PM86 °FPartly sunny.7 mph19%29.86 "Hg4 mi
8:30 PM88 °FBroken clouds.16 mph19%29.89 "Hg4 mi
7:55 PM88 °FPartly sunny.5 mph17%29.86 "HgN/A
7:30 PM90 °FPartly sunny.7 mph16%29.86 "HgN/A
6:55 PM91 °FBroken clouds.12 mph14%29.86 "HgN/A
6:30 PM91 °FBroken clouds.7 mph14%29.86 "HgN/A
5:55 PM91 °FBroken clouds.5 mph14%29.86 "HgN/A
5:30 PM91 °FBroken clouds.7 mph14%29.86 "HgN/A
4:55 PM91 °FBroken clouds.7 mph14%29.86 "HgN/A
4:30 PM93 °FBroken clouds.9 mph13%29.89 "HgN/A
3:55 PM91 °FPartly sunny.9 mph14%29.89 "HgN/A
3:30 PM91 °FPartly sunny.9 mph14%29.89 "HgN/A
2:55 PM91 °FPartly sunny.7 mph14%29.89 "Hg5 mi
2:30 PM91 °FPartly sunny.9 mph14%29.89 "Hg5 mi
2:00 PM91 °FClear.9 mph14%29.89 "Hg5 mi
1:30 PM91 °FClear.9 mph13%29.92 "Hg5 mi
1:00 PM91 °FClear.7 mph13%29.92 "Hg5 mi
12:00 PM88 °FClear.9 mph13%29.92 "Hg4 mi
11:30 AM86 °FSunny.5 mph17%29.95 "Hg10 mi
11:00 AM84 °FSunny.5 mph20%29.95 "Hg10 mi
10:30 AM81 °FSunny.5 mph20%29.95 "Hg10 mi
10:00 AM79 °FSunny.5 mph24%29.95 "Hg10 mi
9:30 AM75 °FSunny.5 mph27%29.92 "Hg10 mi
9:00 AM73 °FSunny.5 mph19%29.92 "Hg10 mi
8:30 AM73 °FSunny.5 mph22%29.92 "Hg10 mi
8:00 AM72 °FClear.5 mph27%29.92 "Hg10 mi
7:30 AM70 °FClear.5 mph31%29.89 "Hg10 mi
6:30 AM72 °FClear.7 mph31%29.89 "Hg10 mi
5:30 AM72 °FClear.5 mph31%29.89 "Hg10 mi
4:30 AM70 °FClear.2 mph35%29.89 "Hg10 mi
3:30 AM72 °FClear.5 mph25%29.89 "Hg10 mi
Weather by CustomWeather, © 2015

See weather overviewHow to use our weather pages